Total_Precipitation_Accumulation
0.01 0.01 0.02 0.03 0.04 0.05 0.09 0.19 0.29 0.31 0.26 0.36 0.55 0.81 0.94 0.92 0.96 1.10 1.22 1.40 1.41 1.45 1.74 2.22 2.86 3.55 4.37 5.47 6.13 6.28 6.04 5.35 4.86 4.46 4.22 3.96 3.71 3.43 2.94 2.56 2.32 2.22 2.10 2.06
0.02 0.03 0.03 0.03 0.03 0.04 0.07 0.15 0.24 0.23 0.20 0.24 0.50 0.90 1.03 1.04 1.10 1.08 1.15 1.21 1.13 1.27 1.62 2.22 2.99 3.80 4.50 5.03 5.39 5.48 5.12 4.37 3.89 3.66 3.61 3.35 3.15 2.84 2.62 2.40 2.37 2.05 1.99 2.03
0.03 0.04 0.03 0.02 0.04 0.05 0.09 0.12 0.19 0.23 0.21 0.25 0.50 1.08 1.30 1.19 1.14 1.10 1.00 0.97 1.06 1.29 1.82 2.57 3.38 4.16 4.49 4.52 4.30 4.00 3.82 3.44 3.33 3.29 3.11 2.90 2.87 2.62 2.46 2.25 2.17 1.87 1.69 1.70
0.02 0.04 0.03 0.04 0.05 0.06 0.11 0.10 0.09 0.12 0.18 0.44 0.59 1.17 1.36 1.32 1.24 1.08 1.06 1.07 1.17 1.44 1.96 2.65 3.19 3.44 3.59 3.52 3.23 3.05 2.98 2.92 2.87 2.79 2.70 2.42 2.30 2.29 2.15 2.06 2.07 1.94 1.72 1.69
0.03 0.04 0.05 0.05 0.05 0.06 0.07 0.07 0.09 0.14 0.26 0.48 0.63 0.98 1.34 1.32 1.39 0.97 0.83 0.93 1.03 1.29 1.57 1.74 1.94 2.10 2.24 2.27 2.43 2.50 2.64 2.77 2.68 2.62 2.63 2.58 2.30 2.27 2.23 2.23 2.31 2.16 1.93 1.72
0.05 0.04 0.04 0.04 0.04 0.05 0.06 0.08 0.16 0.28 0.46 0.85 0.85 1.01 1.36 1.35 1.25 0.87 0.67 0.69 0.89 1.03 1.05 1.10 1.18 1.30 1.52 1.58 1.80 2.02 2.13 2.28 2.45 2.49 2.35 2.29 2.25 2.34 2.39 2.35 2.17 1.97 1.82 1.71
0.11 0.08 0.07 0.07 0.07 0.07 0.07 0.14 0.40 0.78 1.13 1.18 0.74 0.86 1.27 1.20 0.89 0.63 0.55 0.53 0.57 0.71 0.84 0.96 1.07 1.17 1.38 1.34 1.42 1.65 1.72 1.72 1.87 1.93 1.91 1.98 2.14 2.21 2.09 2.00 1.93 1.79 1.55 1.56
0.16 0.15 0.10 0.08 0.09 0.09 0.09 0.14 0.29 0.52 0.62 0.80 0.85 1.34 1.52 0.95 0.64 0.50 0.48 0.47 0.47 0.62 0.74 0.83 0.83 0.91 1.05 1.05 1.19 1.29 1.38 1.44 1.51 1.62 1.74 1.73 1.88 1.89 1.80 1.91 1.77 1.64 1.42 1.32
0.08 0.09 0.08 0.08 0.10 0.10 0.09 0.10 0.15 0.21 0.31 0.66 1.09 1.42 1.36 0.87 0.72 0.57 0.49 0.49 0.50 0.47 0.60 0.67 0.61 0.62 0.76 0.89 1.01 1.09 1.16 1.29 1.33 1.48 1.56 1.54 1.64 1.75 1.81 1.83 1.70 1.52 1.54 1.39
0.05 0.05 0.07 0.07 0.10 0.11 0.11 0.13 0.16 0.20 0.31 0.60 0.99 1.46 1.72 1.27 0.76 0.62 0.57 0.54 0.58 0.49 0.53 0.57 0.56 0.52 0.61 0.77 1.03 1.09 1.11 1.26 1.29 1.38 1.40 1.27 1.46 1.60 1.77 1.74 1.64 1.58 1.60 1.55
0.05 0.05 0.08 0.08 0.10 0.14 0.15 0.13 0.16 0.19 0.23 0.39 0.82 1.13 0.99 0.98 0.78 0.79 0.72 0.63 0.61 0.55 0.58 0.55 0.54 0.54 0.52 0.65 0.87 0.94 1.09 1.21 1.27 1.34 1.44 1.51 1.52 1.47 1.60 1.66 1.63 1.67 1.71 1.68
0.05 0.06 0.08 0.10 0.12 0.14 0.16 0.16 0.17 0.21 0.23 0.26 0.41 0.64 0.64 0.83 0.79 0.77 0.82 0.75 0.67 0.51 0.49 0.52 0.55 0.59 0.57 0.59 0.71 0.86 1.04 1.21 1.26 1.34 1.48 1.58 1.74 1.70 1.65 1.64 1.69 1.78 1.92 1.99
0.04 0.06 0.11 0.20 0.25 0.21 0.16 0.14 0.15 0.17 0.17 0.22 0.43 0.62 0.61 0.67 0.68 0.64 0.77 0.78 0.69 0.64 0.60 0.60 0.65 0.68 0.74 0.74 0.75 0.86 1.03 1.24 1.36 1.45 1.55 1.71 1.81 1.71 1.64 1.75 1.84 1.89 2.04 2.21
0.05 0.04 0.08 0.20 0.28 0.32 0.24 0.16 0.15 0.14 0.16 0.20 0.30 0.53 0.61 0.67 0.64 0.70 0.77 0.79 0.80 0.79 0.75 0.71 0.68 0.70 0.83 1.01 0.98 1.03 1.29 1.34 1.37 1.58 1.78 1.88 1.92 1.84 1.79 1.88 2.00 2.01 2.06 2.22
0.04 0.04 0.05 0.06 0.12 0.18 0.22 0.19 0.15 0.12 0.10 0.15 0.25 0.43 0.56 0.66 0.73 0.77 0.77 0.72 0.69 0.71 0.70 0.64 0.63 0.70 0.81 0.95 1.05 1.16 1.23 1.42 1.51 1.73 1.92 2.00 2.10 2.11 2.11 2.21 2.22 2.15 2.17 2.19
0.08 0.06 0.05 0.05 0.08 0.13 0.16 0.19 0.14 0.11 0.10 0.11 0.22 0.48 0.57 0.62 0.67 0.76 0.75 0.73 0.71 0.69 0.71 0.76 0.80 0.81 0.84 0.90 1.00 1.10 1.18 1.39 1.62 1.92 2.22 2.26 2.32 2.30 2.39 2.54 2.61 2.50 2.48 2.59
0.13 0.11 0.09 0.08 0.11 0.13 0.18 0.18 0.16 0.18 0.17 0.20 0.31 0.46 0.56 0.63 0.70 0.89 0.89 0.82 0.82 0.83 0.85 0.92 1.03 1.01 0.97 1.00 1.03 1.13 1.26 1.45 1.74 2.03 2.29 2.45 2.52 2.57 2.66 2.75 2.76 2.72 2.79 2.98
0.20 0.20 0.17 0.13 0.18 0.25 0.23 0.23 0.22 0.27 0.29 0.33 0.42 0.47 0.63 0.84 0.93 1.09 1.13 1.00 0.96 0.89 0.87 0.94 1.11 1.15 1.13 1.14 1.19 1.34 1.53 1.79 2.08 2.28 2.43 2.54 2.58 2.63 2.69 2.76 2.66 2.70 2.85 2.92
0.22 0.27 0.28 0.24 0.28 0.29 0.33 0.36 0.38 0.43 0.57 0.56 0.66 0.74 0.85 0.96 0.97 1.06 0.98 0.87 0.87 0.87 0.95 1.03 1.15 1.27 1.37 1.41 1.47 1.55 1.71 1.94 2.20 2.39 2.41 2.41 2.52 2.62 2.67 2.70 2.72 2.76 2.79 2.67
0.33 0.34 0.43 0.39 0.42 0.46 0.50 0.53 0.49 0.57 1.05 1.08 1.07 1.01 0.97 1.01 1.22 1.20 0.97 0.88 0.91 0.99 1.06 1.17 1.19 1.24 1.37 1.48 1.51 1.63 1.83 2.06 2.26 2.42 2.44 2.43 2.56 2.68 2.72 2.79 2.83 2.76 2.67 2.58
0.54 0.57 0.55 0.55 0.61 0.59 0.56 0.53 0.54 0.94 1.28 1.21 1.17 1.19 1.12 1.19 1.26 1.24 1.12 1.10 1.07 1.09 1.19 1.23 1.27 1.26 1.31 1.43 1.54 1.69 1.82 1.96 2.10 2.27 2.40 2.57 2.77 2.85 2.85 2.87 2.79 2.70 2.59 2.58
0.68 0.73 0.74 0.75 0.95 1.03 0.73 0.62 0.89 1.21 1.06 1.20 1.34 1.31 1.30 1.26 1.19 1.20 1.23 1.23 1.18 1.13 1.21 1.27 1.32 1.43 1.50 1.57 1.61 1.71 1.72 1.82 2.02 2.09 2.24 2.34 2.51 2.64 2.66 2.71 2.65 2.66 2.60 2.49
0.90 0.89 0.93 1.03 1.18 1.01 0.86 0.90 1.03 1.09 1.18 1.24 1.41 1.49 1.42 1.44 1.36 1.24 1.28 1.23 1.38 1.47 1.46 1.44 1.37 1.42 1.49 1.58 1.68 1.78 1.78 1.75 1.82 1.93 2.10 2.27 2.36 2.53 2.63 2.67 2.63 2.53 2.43 2.27
1.10 0.89 1.01 1.28 1.34 1.19 1.13 1.09 1.04 1.06 1.18 1.26 1.40 1.51 1.59 1.54 1.39 1.28 1.23 1.16 1.14 1.22 1.27 1.38 1.36 1.41 1.60 1.53 1.57 1.70 1.77 1.76 1.82 1.92 1.98 2.10 2.20 2.30 2.52 2.58 2.49 2.34 2.14 2.02
1.26 1.27 1.31 1.52 1.57 1.35 1.28 1.22 1.28 1.28 1.26 1.25 1.33 1.42 1.50 1.41 1.32 1.31 1.25 1.14 1.12 1.12 1.12 1.16 1.19 1.26 1.37 1.39 1.42 1.52 1.62 1.67 1.67 1.68 1.69 1.71 1.88 2.05 2.20 2.26 2.18 2.03 1.90 1.96
1.20 1.44 1.64 1.79 1.59 1.57 1.60 1.49 1.47 1.56 1.53 1.48 1.50 1.63 1.64 1.42 1.30 1.24 1.14 1.08 1.04 0.99 0.99 1.06 1.10 1.11 1.18 1.26 1.38 1.47 1.63 1.76 1.78 1.73 1.67 1.60 1.58 1.69 1.90 2.10 2.16 2.02 1.79 1.80